LA8QT Lodingen NO current weather conditions

sailwx.info

Wind from 010 at 8 knots

Air temperature 3.3° C
Dewpoint -0.9° C

Last reported at 2017-Apr-30 15:56 UTC.
Time now 2017-Apr-30 16:51 UTC

Location: N 68°28' E 016°04'.
View on Google Maps.

See reports from other nearby stations

  
Tides and Currents Weather Stations Pressure Air Temp Water Temp Dewpoint Dewpoint Depression Visibility Wind Speed Wind Dir Waves Ship Positions
date/time (UTC)wind fromknots sea level pressurealtimeterstation pressurevisibilityair tempwater tempwave heightnotes
2017-Apr-30 15:56 010 8 3.3
2017-Apr-30 15:41 014 12 3.3
2017-Apr-30 15:26 352 8 3.9
2017-Apr-30 15:11 336 8 3.9
2017-Apr-30 14:56 029 17 3.3
2017-Apr-30 14:41 052 18 3.3
2017-Apr-30 14:26 048 19 3.9
2017-Apr-30 14:11 050 19 3.9
2017-Apr-30 13:56 045 18 4.4
2017-Apr-30 13:41 035 20 5.0
2017-Apr-30 13:26 046 20 5.0
2017-Apr-30 13:11 048 16 5.6
2017-Apr-30 12:56 029 11 5.6
2017-Apr-30 12:41 038 12 5.6
2017-Apr-30 12:26 036 14 5.6
2017-Apr-30 12:11 025 16 5.6
2017-Apr-30 11:56 295 15 5.6
2017-Apr-30 11:41 295 12 6.1
2017-Apr-30 11:26 295 13 5.6
2017-Apr-30 11:11 014 12 6.1
2017-Apr-30 10:56 295 8 6.1
2017-Apr-30 10:41 002 8 5.6
2017-Apr-30 10:26 295 9 6.1
2017-Apr-30 10:11 295 10 5.6
2017-Apr-30 09:56 020 7 5.6
2017-Apr-30 09:41 295 9 4.4
2017-Apr-30 09:25 295 9 4.4
2017-Apr-30 09:10 295 7 4.4
2017-Apr-30 08:55 295 6 4.4
2017-Apr-30 08:40 309 8 4.4
2017-Apr-30 08:25 352 9 4.4
2017-Apr-30 08:10 295 8 4.4
2017-Apr-30 07:56 295 8 4.4
2017-Apr-30 07:40 295 9 3.9
2017-Apr-30 07:25 295 5 3.9
2017-Apr-30 07:10 295 8 3.9
2017-Apr-30 06:55 295 8 3.9
2017-Apr-30 06:40 295 6 3.9
2017-Apr-30 06:25 011 8 3.3
2017-Apr-30 06:10 295 7 3.3
2017-Apr-30 05:55 295 8 2.8
2017-Apr-30 05:40 295 6 3.3
2017-Apr-30 05:26 295 7 3.3
2017-Apr-30 05:10 295 6 2.8
2017-Apr-30 04:55 295 6 2.8
2017-Apr-30 04:40 295 6 2.8
2017-Apr-30 04:25 295 7 2.8
2017-Apr-30 04:10 295 5 2.8
2017-Apr-30 03:55 348 6 2.2
2017-Apr-30 03:40 356 5 2.2
2017-Apr-30 03:25 358 6 2.2
2017-Apr-30 03:10 295 4 1.7
2017-Apr-30 02:55 351 1 1.7
2017-Apr-30 02:40 295 0 2.2
2017-Apr-30 02:25 295 4 2.2
2017-Apr-30 02:10 342 4 2.2
2017-Apr-30 01:55 354 1 1.7
2017-Apr-30 01:40 353 0 2.2
2017-Apr-30 01:25 350 3 2.2
2017-Apr-30 01:10 003 3 2.8
2017-Apr-30 00:55 295 0 2.8
2017-Apr-30 00:40 348 2.8
2017-Apr-30 00:25 351 1 2.8
2017-Apr-30 00:10 003 3 3.3
2017-Apr-29 23:55 295 5 3.3
2017-Apr-29 23:40 358 4 2.8
2017-Apr-29 23:25 295 3 2.8
2017-Apr-29 23:10 356 3 2.8
2017-Apr-29 22:55 340 3 2.2
2017-Apr-29 22:40 007 0 2.8
2017-Apr-29 22:25 324 1 2.2
2017-Apr-29 22:10 275 0 1.7
2017-Apr-29 21:55 227 2.2
2017-Apr-29 21:40 225 0 2.2
2017-Apr-29 21:25 189 1 2.2
2017-Apr-29 21:09 300 0 2.8
2017-Apr-29 20:55 045 3 2.8
2017-Apr-29 20:39 285 3.3
2017-Apr-29 20:24 323 1 2.8
2017-Apr-29 20:09 323 0 3.3
2017-Apr-29 19:54 350 0 3.9
2017-Apr-29 19:39 352 1 3.3
2017-Apr-29 19:24 329 3.3
2017-Apr-29 19:09 328 3.3
2017-Apr-29 18:54 328 1 3.3
2017-Apr-29 18:39 328 0 3.9
2017-Apr-29 18:24 328 3.9
2017-Apr-29 18:10 328 1 3.9
2017-Apr-29 17:54 350 4.4
2017-Apr-29 17:39 075 5.6
2017-Apr-29 17:24 073 1 5.6
2017-Apr-29 17:09 063 2 6.1
2017-Apr-29 16:54 072 3 6.1
2017-Apr-29 16:40 096 4 6.1
2017-Apr-29 16:24 091 5 6.1
2017-Apr-29 15:54 079 1 6.1
2017-Apr-29 15:39 134 0 6.1
2017-Apr-29 15:24 142 0 6.7
2017-Apr-29 15:09 188 0 6.7
2017-Apr-29 14:54 167 2 6.7
2017-Apr-29 14:39 197 1 6.7
2017-Apr-29 14:24 172 2 6.7
2017-Apr-29 14:09 137 3 6.7
2017-Apr-29 13:54 166 4 6.1
2017-Apr-29 13:39 151 3 6.7
2017-Apr-29 13:24 148 2 6.7
2017-Apr-29 13:09 133 7.2
2017-Apr-29 12:54 142 0 7.2
2017-Apr-29 12:39 143 7.2
2017-Apr-29 12:24 142 1 6.7
2017-Apr-29 12:09 145 2 6.7
2017-Apr-29 11:54 137 0 6.7
2017-Apr-29 11:39 030 0 6.7
2017-Apr-29 11:24 029 0 6.7
2017-Apr-29 11:09 029 6.7
2017-Apr-29 10:54 029 1 6.1
2017-Apr-29 10:39 028 0 6.1
2017-Apr-29 10:24 028 1 6.1
2017-Apr-29 10:09 029 2 5.6
2017-Apr-29 09:54 029 2 5.6
2017-Apr-29 09:39 028 3 5.0
2017-Apr-29 09:24 029 3 5.0
2017-Apr-29 09:09 028 3 5.0
2017-Apr-29 08:54 029 3 4.4
2017-Apr-29 08:39 022 4 4.4
2017-Apr-29 08:24 021 5 4.4
2017-Apr-29 08:09 024 5 3.9
2017-Apr-29 07:54 295 5 3.9
2017-Apr-29 07:39 026 5 3.9
2017-Apr-29 07:24 295 6 3.3
2017-Apr-29 07:09 023 6 3.3
2017-Apr-29 06:54 026 6 3.3
2017-Apr-29 06:39 015 7 2.8
2017-Apr-29 06:24 295 6 2.8
2017-Apr-29 06:09 295 6 2.8
2017-Apr-29 05:54 295 7 2.2
2017-Apr-29 05:38 295 8 2.2
2017-Apr-29 05:23 025 8 2.2
2017-Apr-29 05:08 295 8 2.2
2017-Apr-29 04:53 295 8 1.7
2017-Apr-29 04:38 013 8 1.7
2017-Apr-29 04:23 295 6 1.7
2017-Apr-29 04:08 295 6 1.7
2017-Apr-29 03:53 013 6 1.7
2017-Apr-29 03:38 018 4 1.7
2017-Apr-29 03:23 359 0 1.7
2017-Apr-29 03:08 358 2 1.7
2017-Apr-29 02:53 348 2 1.1
2017-Apr-29 02:38 333 1 1.1
2017-Apr-29 02:23 312 2 0.6
2017-Apr-29 02:08 277 0.6
2017-Apr-29 01:53 264 -0.0
2017-Apr-29 01:38 264 1 -0.0
2017-Apr-29 01:23 264 -0.0
2017-Apr-29 01:08 264 0.6
2017-Apr-29 00:53 264 -0.0
2017-Apr-29 00:38 264 -0.0
2017-Apr-29 00:23 252 0.6
2017-Apr-29 00:08 252 0.6
2017-Apr-28 23:53 252 -0.0
2017-Apr-28 23:38 252 0.6
2017-Apr-28 23:23 252 0.6
2017-Apr-28 23:08 252 -0.0
2017-Apr-28 22:53 250 0.6
2017-Apr-28 22:38 251 1.1
2017-Apr-28 22:23 252 0.6
2017-Apr-28 22:08 252 1.1
2017-Apr-28 21:53 252 1.1
2017-Apr-28 21:38 252 0.6
2017-Apr-28 21:23 252 1.1
2017-Apr-28 21:08 252 1.7
2017-Apr-28 20:53 252 1.7
2017-Apr-28 20:38 252 1.1
2017-Apr-28 20:23 252 1.7
2017-Apr-28 20:08 249 1 1.1
2017-Apr-28 19:53 249 1.7
2017-Apr-28 19:38 248 1.7
2017-Apr-28 19:23 249 2 1.7
2017-Apr-28 19:08 226 1 1.7
2017-Apr-28 18:53 221 2.2
2017-Apr-28 18:38 221 0 2.2
2017-Apr-28 18:23 221 1 2.8
2017-Apr-28 18:08 156 0 3.3
2017-Apr-28 17:53 153 3.3
2017-Apr-28 17:38 153 3.9
2017-Apr-28 17:23 153 5.6
2017-Apr-28 17:08 160 0 5.6
2017-Apr-28 16:53 158 0 5.6
2017-Apr-28 16:38 155 0 5.6
2017-Apr-28 16:23 157 1 5.6
2017-Apr-28 16:08 152 3 5.6